Location: Lansingburgh
(42.7845°N, 73.6696°W)
Time: 17:57:24
(UTC+00:00)

Cosmos 1980 - Pass Details

Date: 24 January 2020
Orbit: 838 x 849 km, 71.0° (Epoch: 23 February)

Event Time Altitude Azimuth Distance (km) Brightness Sun altitude
Rises 22:46:12 0° 333° (NNW) 3,420 7.0 -9.3°
Reaches altitude 10° 22:48:40 10° 331° (NNW) 2,481 6.3 -9.7°
Maximum altitude 22:54:19 68° 249° (WSW) 912 4.1 -10.7°
Drops below altitude 10° 22:59:56 10° 168° (SSE) 2,464 6.2 -11.7°
Sets 23:02:23 0° 165° (SSE) 3,395 6.9 -12.1°
